User: anonymous   Login
Location: South Tamworth Observatory
(43.8246°N, 71.3026°W)
Time: 20:03:47
(UTC-04:00)
Language:

Cosmos 2208 Rocket - Orbit

View from above orbital plane
View from above orbital plane
View from above satellite
View from above satellite

Ground track
Ground track

The orbit data is extracted from the following two-line orbital elements,

1 22081U 92053B   15210.11065186  .00000032  00000-0  20757-4 0  9999
2 22081 074.0434 256.3777 0035478 032.7294 327.6045 14.33252959200112
Epoch (UTC): 29 July 2015 02:39:20
Eccentricity: 0.0035478
inclination: 74.0434°
perigee height: 755 km
apogee height: 806 km
right ascension of ascending node: 256.3777°
argument of perigee: 32.7294°
revolutions per day: 14.33252959
mean anomaly at epoch: 327.6045°
orbit number at epoch: 20011

The dashed part of the orbit path shows where the satellite is in the earth's shadow,  

DLR